Flag for Brunei Past Weather in Bandar Seri Begawan, Brunei — Yesterday and Last 2 Weeks

Now
82 °F

Passing clouds.


Feels Like: 91 °F
Forecast: 79 / 88 °F
Wind: 1 mph from Northwest

Location: Brunei Airport

Current Time: Jul 29, 2016 at 10:07:16 PM

Latest Report: Jul 29, 2016 at 9:30 PM


Visibility: N/A

Pressure: 29.86 "Hg

Humidity: 84%

Dew Point: 77 °F

Location of Bandar Seri BegawanLocation

Past Weather in Bandar Seri Begawan — Graph

°F

Bandar Seri Begawan Temperature Yesterday

Maximum temperature yesterday: 88 °F (at 1:30 PM)
Minimum temperature yesterday: 75 °F (at 12:00 AM)
Average temperature yesterday: 80 °F

High & Low Weather Summary for the Past Weeks

 TemperatureHumidityPressure
High90 °F (Jul 29, 11:30 AM)100% (Jul 14, 8:00 PM)29.92 "Hg (Jul 14, 8:00 PM)
Low75 °F (Jul 15, 5:30 AM)52% (Jul 29, 12:00 PM)29.71 "Hg (Jul 18, 4:00 PM)
Average81 °F87%29.82 "Hg
* Reported Jul 14 8:00 PM — Jul 29 8:30 PM, Bandar Seri Begawan, Weather by CustomWeather, © 2016

Note: Actual official high and low records may vary slightly from our data, if they occured in-between our weather recording intervals... More about our weather records

Advertising

Bandar Seri Begawan Weather History for the Previous 24 Hours

Scroll right to see more
 ConditionsComfort  
Time TempWeatherWind HumidityBarometerVisibility
8:30 PM
Fri, Jul 29
84 °FPassing clouds.2 mph74%29.83 "HgN/A
8:00 PM82 °FPassing clouds.1 mph79%29.80 "HgN/A
7:30 PM84 °FPassing clouds.2 mph74%29.80 "HgN/A
7:00 PM84 °FPassing clouds.2 mph74%29.80 "HgN/A
6:30 PM86 °FPartly sunny.3 mph70%29.80 "HgN/A
6:00 PM86 °FPartly sunny.5 mph70%29.80 "HgN/A
5:30 PM86 °FPartly sunny.7 mph70%29.77 "HgN/A
5:00 PM88 °FPartly sunny.6 mph70%29.77 "HgN/A
4:30 PM88 °FPartly sunny.6 mph62%29.77 "HgN/A
4:00 PM88 °FPartly sunny.5 mph66%29.77 "HgN/A
3:30 PM90 °FPartly sunny.6 mph59%29.77 "HgN/A
3:00 PM90 °FPartly sunny.7 mph59%29.77 "HgN/A
2:30 PM90 °FPartly sunny.6 mph55%29.77 "HgN/A
2:00 PM90 °FPartly sunny.6 mph59%29.80 "HgN/A
1:30 PM90 °FPartly sunny.5 mph55%29.80 "HgN/A
1:00 PM90 °FPartly sunny.5 mph59%29.80 "HgN/A
12:30 PM90 °FPartly sunny.6 mph52%29.83 "HgN/A
12:00 PM90 °FPartly sunny.5 mph52%29.83 "HgN/A
11:30 AM90 °FPartly sunny.5 mph55%29.83 "HgN/A
11:00 AM88 °FPartly sunny.6 mph59%29.86 "HgN/A
10:30 AM88 °FPartly sunny.5 mph62%29.83 "HgN/A
10:00 AM86 °FPartly sunny.3 mph62%29.83 "HgN/A
9:30 AM86 °FPartly sunny.2 mph62%29.83 "HgN/A
9:00 AM84 °FPartly sunny.2 mph70%29.83 "HgN/A
8:30 AM81 °FPartly sunny.2 mph79%29.83 "HgN/A
8:00 AM79 °FPartly sunny.1 mph89%29.83 "HgN/A
7:30 AM77 °FPartly sunny.2 mph94%29.83 "HgN/A
7:00 AM75 °FPartly sunny.2 mph94%29.80 "HgN/A
6:30 AM75 °FPartly sunny.3 mph94%29.80 "HgN/A
6:00 AM75 °FPassing clouds.3 mph94%29.80 "HgN/A
5:30 AM75 °FPassing clouds.3 mph100%29.77 "HgN/A
5:00 AM75 °FPassing clouds.1 mph100%29.77 "HgN/A
4:30 AM75 °FPartly cloudy.3 mph100%29.77 "HgN/A
4:00 AM77 °FPartly cloudy.2 mph94%29.77 "HgN/A
3:30 AM77 °FPassing clouds.5 mph94%29.77 "HgN/A
3:00 AM77 °FPassing clouds.5 mph94%29.80 "HgN/A
2:30 AM77 °FPassing clouds.2 mph94%29.80 "HgN/A
2:00 AM77 °FPassing clouds.2 mph100%29.80 "HgN/A
1:30 AM77 °FPassing clouds.1 mph100%29.80 "HgN/A
1:00 AM79 °FPassing clouds.1 mph89%29.83 "HgN/A
12:30 AM79 °FPassing clouds.2 mph89%29.83 "HgN/A
12:00 AM79 °FPassing clouds.2 mph94%29.86 "HgN/A
11:30 PM
Thu, Jul 28
79 °FPassing clouds.1 mph89%29.86 "HgN/A
11:00 PM79 °FPassing clouds.1 mph89%29.86 "HgN/A
10:30 PM79 °FPassing clouds.2 mph89%29.86 "HgN/A
10:00 PM79 °FPassing clouds.1 mph89%29.86 "HgN/A
Weather by CustomWeather, © 2016

See weather overviewHow to use our weather pages